This demonstration page uses our WeatherBlox Daily Observations layout. Learn more.

Left ArrowRight Arrow

39.92423, -83.80882

Hourly Observations for March 12, 2017

Temp ( °F °C ) Dew Point ( °F °C ) Humidity (%) Winds ( mph kmh ) Pressure ( in mb ) Visibility ( mi km ) Precip ( " mm )
12:56 am 00:56 Cloudy 24 -4.4 14 -10 65 65 NW 6 9 30.43 1031 10 16.0934 0 0
1:56 am 01:56 Cloudy 24 -4.4 13 -10.6 62 62 NNW 9 15 30.43 1031 10 16.0934 0 0
3:56 am 03:56 Cloudy 22 -5.6 13 -10.6 68 68 NNW 12 19 30.42 1030 10 16.0934 0 0
4:56 am 04:56 Cloudy 21 -6.1 12 -11.1 68 68 NNW 8 13 30.42 1030 10 16.0934 0 0
5:56 am 05:56 Cloudy 20 -6.7 13 -10.6 74 74 NNW 8 13 30.43 1030 10 16.0934 0 0
6:56 am 06:56 Cloudy 20 -6.7 13 -10.6 74 74 N 7 11 30.44 1031 10 16.0934 0 0
7:56 am 07:56 Sunny 17 -8.3 12 -11.1 80 80 N 5 7 30.45 1031 10 16.0934 0 0
8:56 am 08:56 Sunny 20 -6.7 12 -11.1 71 71 N 10 17 30.46 1031 10 16.0934 0 0
9:56 am 09:56 Mostly Sunny 22 -5.6 13 -10.6 68 68 N 12 19 30.48 1032 10 16.0934 0 0
10:56 am 10:56 Sunny 24 -4.4 13 -10.6 62 62 N 8 13 30.48 1032 10 16.0934 0 0
11:56 am 11:56 Mostly Sunny 26 -3.3 12 -11.1 55 55 NNE 7 11 30.49 1032 10 16.0934 0 0
12:56 pm 12:56 Partly Cloudy 27 -2.8 12 -11.1 53 53 VRB 6 9 30.49 1033 10 16.0934 0 0
1:56 pm 13:56 Sunny 29 -1.7 13 -10.6 51 51 VRB 6 9 30.46 1032 10 16.0934 0 0
2:56 pm 14:56 Sunny 32 0 13 -10.6 45 45 N 9 15 30.43 1030 10 16.0934 0 0
3:56 pm 15:56 Sunny 33 0.6 10 -12.2 38 38 NNW 9 15 30.42 1030 10 16.0934 0 0
4:56 pm 16:56 Sunny 33 0.6 6 -14.4 32 32 Calm 30.42 1030 10 16.0934 0 0
5:56 pm 17:56 Sunny 32 0 7 -13.9 35 35 NE 3 6 30.42 1030 10 16.0934 0 0
6:56 pm 18:56 Sunny 31 -0.6 10 -12.2 42 42 NE 6 9 30.4 1030 10 16.0934 0 0
7:56 pm 19:56 Clear 27 -2.8 12 -11.1 53 53 E 6 9 30.4 1030 10 16.0934 0 0
8:56 pm 20:56 Clear 24 -4.4 14 -10 65 65 E 8 13 30.4 1030 10 16.0934 0 0
9:56 pm 21:56 Clear 26 -3.3 15 -9.4 63 63 E 9 15 30.39 1029 10 16.0934 0 0
10:56 pm 22:56 Clear 26 -3.3 15 -9.4 63 63 E 12 19 30.36 1028 10 16.0934 0 0
11:56 pm 23:56 Clear 27 -2.8 15 -9.4 61 61 E 10 17 30.36 1028 10 16.0934 0 0

Powered by AerisWeather